星链-3751 (STARLINK-3751 )

导读

STARLINK-3751是美国太空探索技术公司SpaceX星链卫星互联网项目中的一颗卫星,于北京时间2022年4月21日发射入轨,星链项目旨在为全球提供覆盖广泛的高速卫星互联网接入服务,该卫星属于星链低轨星座组网卫星,运行在近地轨道,支撑项目的全球服务覆盖能力建设。

Basic Information
目录编号:
52289
目录名称:
STARLINK-3751
国际标识:
2022-041AE
轨道中心:
EARTH
卫星名称:
星链-3751
卫星全名:
星链-3751 (STARLINK-3751 )
卫星状态:
在轨 (已飞行1597 天)
发射日期:
2022-04-21 UTC
国别 :
美国 (US)
星等 :
--
Orbit Information
数据来源 国际轨道数据
星历时间: 2026-09-03T16:15:12+0800
22小时前
查看轨道信息
半长轴: 6848.846km
偏心率: 0.0000632
轨道倾角: 53.161°
近地点辐角 198.195°
升交点赤经 11.671°
平近点角 161.903°
近地点: 470.276km
远地点: 471.142km
周期: 94.013分钟
每日圈数: 15.317104
Detailed Information
固有亮度:
5
最大亮度:
2.5
卫星平台:
Starlink v1.5
覆盖范围:
全球
运营商:
太空探索技术公司
运营商所在国:
美国
制造商(研发单位):
太空探索技术公司
制造商所在国:
美国
使用方式:
暂无
Satellite Introduction
星链(Starlink)计划是由太空探索技术公司(SpaceX)提出的一个巨型低轨卫星互联网星座项目,计划在2019年至2024年间在太空搭建由约1.2万颗卫星组成的“星链”网络,其中1584颗将部署在地球上空550千米处的近地轨道,并从2020年开始工作。该卫星仍在工作。
2D Orbit Map
3D Orbit Map
Orbit Altitude Analysis Chart
Orbit Inclination Analysis Chart
Orbit Comprehensive Analysis Chart
View Comprehensive Chart
Conjunction Data List
Event ID Objects TCA Miss Dist (km) Collision Risk Probability Collision Risk Index (CRI) Action
CDM_260903-010902-054705-228928
USA 55 (20547)
2026-09-03T
01:09:38+0000
0.995 km
远距离
2.736188E-5 中风险 0.64
CDM_260904-085705-228906-971521
2026-09-04T
08:57:43+0000
2.828 km
极远距离
1.195775E-6 低风险 0.37
CDM_260903-040005-228906-528922
2026-09-03T
04:00:11+0000
2.973 km
极远距离
1.102623E-6 低风险 0.36